Weather History for KWST - February, 2013

Change the Weather History Date:

Tuesday, February 19, 2013

  Actual Average (KGON) Record (KGON)
Temperature  
Mean Temperature 32 °F -  
Max Temperature 46 °F 42 °F 59 °F (1997)
Min Temperature 18 °F 24 °F 6 °F (1958)
Degree Days  
Heating Degree Days 33    
Moisture  
Dew Point 36 °F    
Average Humidity 90    
Maximum Humidity 100    
Minimum Humidity 54    
Precipitation  
Precipitation 0.20 in - - ()
Sea Level Pressure  
Sea Level Pressure 29.84 in    
Wind  
Wind Speed 5 mph (SSW)    
Max Wind Speed 15 mph    
Max Gust Speed -    
Visibility 7 miles    
Events Rain    
Averages and records for this station are not official NWS values.
T = Trace of Precipitation, MM = Missing Value Source: NWS Daily Summary

Daily Weather History Graph

Daily Weather History Graph

Search for Another Location

Airport or City:

Trip Planner

Search our weather history database for the weather conditions in past years. The results will help you decide how hot, cold, wet, or windy it might be!

Date:

Astronomy

Feb. 19, 2013 Rise Set
Actual Time 6:36 AM EST 5:26 PM EST
Civil Twilight 6:08 AM EST 5:54 PM EST
Nautical Twilight 5:36 AM EST 6:26 PM EST
Astronomical Twilight 5:04 AM EST 6:58 PM EST
Moon 11:53 AM EST (2/19) 2:07 AM EST (2/19)
Length of Visible Light 11h 46m
Length of Day
10h 50m
Waxing Gibbous, 67% of the Moon is Illuminated
Feb 19
Waxing Gibbous
Feb 25
Full
Mar 4
Last Quarter
Mar 11
New
Mar 19
First Quarter

Hourly Weather History & Observations

Time (EST) Temp. Windchill Dew Point Humidity Pressure Visibility Wind Dir Wind Speed Gust Speed Precip Events Conditions
12:53 AM 28.9 °F 25.2 °F 14.0 °F 54% 30.22 in 10.0 mi West 3.5 mph - N/A   Clear
1:53 AM 32.0 °F 27.5 °F 18.0 °F 56% 30.20 in 10.0 mi West 4.6 mph - N/A   Clear
2:53 AM 27.0 °F - 18.0 °F 69% 30.17 in 10.0 mi Calm Calm - N/A   Clear
3:53 AM 23.0 °F - 17.1 °F 78% 30.17 in 10.0 mi Calm Calm - N/A   Clear
4:53 AM 19.9 °F - 15.1 °F 81% 30.17 in 10.0 mi Calm Calm - N/A   Clear
5:53 AM 18.0 °F - 14.0 °F 84% 30.16 in 10.0 mi Calm Calm - N/A   Clear
6:53 AM 18.0 °F - 15.1 °F 88% 30.13 in 10.0 mi Calm Calm - N/A   Clear
7:53 AM 23.0 °F - 17.1 °F 78% 30.13 in 10.0 mi Calm Calm - N/A   Clear
8:53 AM 33.1 °F - 21.0 °F 61% 30.11 in 10.0 mi Calm Calm - N/A   Clear
9:53 AM 43.0 °F 35.7 °F 34.0 °F 71% 30.09 in 10.0 mi SSW 15.0 mph - N/A   Clear
10:53 AM 44.1 °F 38.1 °F 34.0 °F 68% 30.08 in 10.0 mi SSW 11.5 mph - N/A   Clear
11:53 AM 44.1 °F 38.1 °F 35.1 °F 71% 30.05 in 10.0 mi SSW 11.5 mph - N/A   Clear
1:53 PM 44.1 °F 39.5 °F 37.0 °F 76% 29.96 in 10.0 mi South 8.1 mph - N/A   Partly Cloudy
2:53 PM 43.0 °F 38.8 °F 39.0 °F 86% 29.92 in 10.0 mi South 6.9 mph - N/A   Mostly Cloudy
3:53 PM 44.1 °F 38.1 °F 41.0 °F 89% 29.89 in 7.0 mi South 11.5 mph - 0.00 in Rain Light Rain
4:53 PM 42.1 °F 37.1 °F 41.0 °F 96% 29.82 in 6.0 mi South 8.1 mph - 0.01 in Rain Light Rain
5:34 PM 42.8 °F 38.6 °F 42.8 °F 100% 29.78 in 7.0 mi SSE 6.9 mph - 0.00 in Rain Light Rain
5:51 PM 44.6 °F 39.2 °F 42.8 °F 93% 29.79 in 2.5 mi South 10.4 mph - 0.05 in Rain Heavy Rain
5:53 PM 44.1 °F 39.0 °F 44.1 °F 100% 29.78 in 2.5 mi SSE 9.2 mph - 0.06 in Rain Rain
6:05 PM 44.6 °F 40.7 °F 44.6 °F 100% 29.77 in 1.8 mi Variable 6.9 mph - 0.13 in Rain Heavy Rain
6:13 PM 44.6 °F 39.7 °F 44.6 °F 100% 29.78 in 1.0 mi SSE 9.2 mph - 0.32 in Rain Heavy Rain
6:24 PM 44.6 °F 39.2 °F 44.6 °F 100% 29.78 in 1.8 mi South 10.4 mph - 0.43 in Rain Heavy Rain
6:28 PM 46.4 °F 40.4 °F 44.6 °F 93% 29.77 in 2.0 mi South 13.8 mph - 0.44 in Rain Rain
6:33 PM 46.4 °F 40.7 °F 46.4 °F 100% 29.76 in 4.0 mi South 12.7 mph - 0.45 in Rain Rain
7:23 PM 44.6 °F 40.2 °F 42.8 °F 93% 29.72 in 5.0 mi SSE 8.1 mph - 0.04 in Rain Light Rain
7:30 PM 44.6 °F 40.2 °F 42.8 °F 93% 29.71 in 5.0 mi SSE 8.1 mph - 0.05 in Rain Light Rain
7:53 PM 43.0 °F 38.2 °F 43.0 °F 100% 29.69 in 4.0 mi SSE 8.1 mph - 0.07 in Rain Light Rain
8:15 PM 44.6 °F 39.7 °F 44.6 °F 100% 29.66 in 2.5 mi South 9.2 mph - 0.01 in Rain Light Rain
8:24 PM 44.6 °F 39.2 °F 44.6 °F 100% 29.66 in 5.0 mi SSW 10.4 mph - 0.01 in Rain Light Rain
8:44 PM 46.4 °F 42.4 °F 46.4 °F 100% 29.67 in 4.0 mi SW 8.1 mph - 0.03 in Rain Rain
8:53 PM 45.0 °F 39.7 °F 45.0 °F 100% 29.67 in 4.0 mi WSW 10.4 mph - 0.05 in Rain Light Rain
9:44 PM 44.6 °F 40.2 °F 44.6 °F 100% 29.64 in 8.0 mi WSW 8.1 mph - 0.01 in Rain Light Rain
9:53 PM 43.0 °F 40.3 °F 43.0 °F 100% 29.63 in 9.0 mi WSW 4.6 mph - 0.01 in   Overcast
10:08 PM 42.8 °F 39.3 °F 42.8 °F 100% 29.63 in 9.0 mi WSW 5.8 mph - N/A   Overcast
10:46 PM 41.0 °F 38.0 °F 41.0 °F 100% 29.64 in 7.0 mi SW 4.6 mph - 0.00 in Rain Light Rain
10:53 PM 41.0 °F - 41.0 °F 100% 29.64 in 5.0 mi Calm Calm - 0.00 in   Overcast
10:58 PM 41.0 °F 39.0 °F 41.0 °F 100% 29.64 in 4.0 mi SW 3.5 mph - N/A   Overcast
11:11 PM 41.0 °F 38.0 °F 41.0 °F 100% 29.63 in 4.0 mi West 4.6 mph - N/A   Overcast
11:20 PM 41.0 °F 39.0 °F 41.0 °F 100% 29.63 in 4.0 mi WSW 3.5 mph - N/A   Overcast
11:31 PM 41.0 °F - 41.0 °F 100% 29.62 in 8.0 mi Calm Calm - N/A   Overcast
11:53 PM 39.9 °F - 39.9 °F 100% 29.62 in 8.0 mi Calm Calm - N/A   Overcast